EW8371 Weather Reports


Display with metric or nautical units.
time (UTC)temp
F
wind
direction
speed
MPH
gust
MPH
rain 1hr
in
rain 24hr
in
rain mn
in
humidity
%
barometer
mb
20260503023105 34 311 0.0 0.0 0.00 0.06 0.00 74 1011.2
20260503021604 34 313 0.0 0.0 0.00 0.06 0.00 75 1011.1
20260503020104 35 302 0.0 0.0 0.00 0.06 0.00 74 1011.1
20260503014550 36 321 0.0 0.0 0.00 0.06 0.00 74 1011.1
20260503013048 37 321 0.0 0.0 0.00 0.07 0.00 72 1011.0
20260503011554 37 322 0.0 0.0 0.00 0.07 0.00 71 1010.9
20260503010050 38 276 0.0 0.0 0.00 0.07 0.00 69 1010.8
20260503004535 39 275 0.0 0.0 0.00 0.07 0.00 67 1010.7
20260503003031 40 360 0.0 1.0 0.00 0.07 0.00 64 1010.7
20260503001527 41 5 3.0 6.0 0.00 0.07 0.00 63 1010.6
20260503000026 42 292 2.0 5.0 0.00 0.07 0.00 62 1010.5
20260502234523 42 355 2.0 8.0 0.00 0.07 0.00 61 1010.4
20260502233021 43 340 1.0 12.0 0.00 0.07 0.00 60 1010.4
20260502231521 43 307 5.0 11.0 0.00 0.07 0.00 57 1010.2
20260502230016 44 284 5.0 12.0 0.00 0.07 0.00 53 1010.1
20260502224515 45 34 4.0 10.0 0.00 0.07 0.00 52 1010.0
20260502223014 45 26 3.0 12.0 0.00 0.07 0.00 52 1010.0
20260502221512 45 219 0.0 7.0 0.00 0.07 0.00 50 1009.9
20260502220012 45 27 2.0 10.0 0.00 0.07 0.00 49 1009.9
20260502214510 45 272 4.0 9.0 0.00 0.07 0.00 47 1009.8
20260502213013 45 300 4.0 10.0 0.00 0.07 0.00 48 1009.8
20260502211507 45 345 0.0 11.0 0.00 0.07 0.00 51 1009.7
20260502210007 45 341 5.0 10.0 0.00 0.07 0.00 50 1009.6
20260502204515 46 10 3.0 11.0 0.00 0.07 0.00 50 1009.6
20260502203011 45 348 3.0 12.0 0.00 0.07 0.00 49 1009.6
20260502201502 46 306 8.0 17.0 0.00 0.07 0.00 47 1009.7
20260502200002 47 241 7.0 20.0 0.00 0.07 0.00 43 1009.8
20260502194600 47 213 6.0 14.0 0.00 0.07 0.00 46 1010.0
20260502194558 47 209 6.0 14.0 0.00 0.07 0.00 46 1010.0
20260502193056 47 327 5.0 13.0 0.00 0.07 0.00 46 1010.1
20260502191603 47 209 5.0 13.0 0.00 0.07 0.00 46 1010.2
20260502190053 46 269 3.0 9.0 0.00 0.07 0.00 48 1010.3
20260502184553 45 301 2.0 10.0 0.00 0.07 0.00 51 1010.4
20260502183052 45 19 2.0 10.0 0.00 0.07 0.00 52 1010.4
20260502181553 45 309 8.0 16.0 0.00 0.07 0.00 52 1010.3
20260502163049 45 355 7.0 16.0 0.00 0.07 0.00 50 1010.3
20260502161538 45 12 4.0 17.0 0.00 0.07 0.00 55 1010.3
20260502151536 44 246 6.0 13.0 0.00 0.07 0.07 56 1010.5
20260502123015 40 204 0.0 1.0 0.00 0.07 0.07 63 1010.7
20260502121514 39 82 0.0 6.0 0.00 0.07 0.07 62 1010.6
20260502114510 39 312 0.0 2.0 0.00 0.07 0.07 56 1010.6
20260502113008 39 145 0.0 2.0 0.00 0.07 0.07 54 1010.6
20260502111508 39 175 0.0 1.0 0.00 0.07 0.07 53 1010.7
20260502110004 38 216 0.0 3.0 0.00 0.07 0.07 53 1010.5
20260502104509 38 261 1.0 3.0 0.00 0.07 0.07 53 1010.3
20260502103004 39 181 0.0 4.0 0.00 0.07 0.07 51 1010.3
20260502101605 39 202 0.0 0.0 0.00 0.07 0.07 50 1010.1
20260502070042 39 302 0.0 3.0 0.00 0.07 0.07 44 1009.2
20260502064541 39 344 3.0 8.0 0.00 0.07 0.07 44 1009.2
20260502063052 40 17 5.0 10.0 0.00 0.07 0.07 43 1009.2
20260502061534 40 296 1.0 6.0 0.00 0.07 0.07 42 1009.1
20260502060031 42 337 8.0 14.0 0.00 0.07 0.07 41 1009.0
20260502054527 43 121 0.0 0.0 0.00 0.07 0.07 37 1008.8
20260502053027 43 134 0.0 0.0 0.00 0.07 0.07 39 1009.1
20260502051532 43 134 0.0 0.0 0.00 0.07 0.07 40 1009.1
20260502050027 43 134 0.0 0.0 0.00 0.07 0.07 42 1009.2
20260502044524 43 134 0.0 2.0 0.00 0.07 0.07 43 1009.1
20260502043023 43 152 0.0 2.0 0.01 0.07 0.07 44 1009.0
20260502041523 43 189 0.0 3.0 0.03 0.07 0.07 43 1009.2
20260502040023 43 176 0.0 6.0 0.04 0.07 0.07 39 1009.2
20260502034552 43 211 2.0 5.0 0.04 0.07 0.07 38 1009.3
20260502033047 44 170 0.0 2.0 0.03 0.06 0.06 38 1009.4
20260502031544 44 173 0.0 0.0 0.01 0.04 0.04 40 1009.3
20260502030048 44 169 0.0 1.0 0.01 0.03 0.03 42 1009.3
20260502024541 44 159 0.0 2.0 0.02 0.03 0.03 44 1009.4